When you browse on this site, cookies collect data to enhance your experience and personalize the content and advertising you see.
Visit our Privacy Policy to learn more. By continuing to use the site, you agree to this use of cookies and data.
  • En España
  • Lista de países
  • Para 7 días
  • Temperatura del agua
  • El tiempo en el mapa
  • Informadores
  • user-avatar
    Iniciar sesión

    Tiempo cada hora Leatherhead

    Hoy, 20 Febrero, Jueves

    Tiempo Temperatura Precipitaciones Viento Presión Humedad
    00:00 +7°C° 0 mm 6 mps 753 mmHg 87%
    01:00 +7°C° 0 mm 6 mps 753 mmHg 87%
    02:00 +6°C° 0 mm 7 mps 752 mmHg 87%
    03:00 +6°C° 0 mm 7 mps 752 mmHg 86%
    04:00 +6°C° 0 mm 8 mps 751 mmHg 86%
    05:00 +6°C° 0 mm 8 mps 751 mmHg 85%
    06:00 +7°C° 0 mm 8 mps 751 mmHg 84%
    07:00 +7°C° 0 mm 8 mps 750 mmHg 84%
    08:00 +7°C° 0 mm 9 mps 749 mmHg 84%
    09:00 +7°C° 0 mm 10 mps 749 mmHg 84%
    10:00 +7°C° 0.4 mm 10 mps 748 mmHg 85%
    11:00 +7°C° 0.4 mm 11 mps 748 mmHg 85%
    12:00 +7°C° 0.4 mm 12 mps 747 mmHg 86%
    13:00 +6°C° 0.7 mm 11 mps 748 mmHg 82%
    14:00 +5°C° 0.7 mm 9 mps 749 mmHg 79%
    15:00 +4°C° 0.7 mm 8 mps 750 mmHg 75%
    16:00 +3°C° 0.1 mm 7 mps 751 mmHg 73%
    17:00 +2°C° 0.1 mm 6 mps 753 mmHg 72%
    18:00 +2°C° 0.1 mm 6 mps 755 mmHg 71%
    19:00 +1°C° 0 mm 6 mps 756 mmHg 71%
    20:00 +1°C° 0 mm 5 mps 757 mmHg 72%
    21:00 +1°C° 0 mm 5 mps 757 mmHg 73%
    22:00 +1°C° 0 mm 5 mps 758 mmHg 74%
    23:00 0°C° 0 mm 5 mps 759 mmHg 75%

    Mañana, 21 Febrero, Viernes

    Tiempo Temperatura Precipitaciones Viento Presión Humedad
    00:00 0°C° 0 mm 5 mps 760 mmHg 77%
    01:00 0°C° 0 mm 5 mps 760 mmHg 78%
    02:00 0°C° 0 mm 5 mps 760 mmHg 80%
    03:00 0°C° 0 mm 4 mps 760 mmHg 81%
    04:00 0°C° 0 mm 5 mps 761 mmHg 82%
    05:00 +1°C° 0 mm 5 mps 761 mmHg 82%
    06:00 +1°C° 0 mm 5 mps 761 mmHg 83%
    13:00 +7°C° 0 mm 9 mps 761 mmHg 72%
    14:00 +7°C° 0 mm 9 mps 760 mmHg 73%
    15:00 +7°C° 0 mm 9 mps 759 mmHg 74%
    16:00 +7°C° 0 mm 9 mps 759 mmHg 75%
    17:00 +6°C° 0 mm 9 mps 759 mmHg 77%
    18:00 +6°C° 0 mm 9 mps 759 mmHg 78%
    19:00 +6°C° 0 mm 9 mps 759 mmHg 77%
    20:00 +6°C° 0 mm 9 mps 758 mmHg 77%
    21:00 +6°C° 0 mm 9 mps 758 mmHg 76%
    22:00 +6°C° 0 mm 9 mps 758 mmHg 76%
    23:00 +6°C° 0 mm 9 mps 757 mmHg 77%

    Pasado mañana, 22 Febrero, Sábado

    Tiempo Temperatura Precipitaciones Viento Presión Humedad
    00:00 +6°C° 0 mm 9 mps 757 mmHg 77%
    01:00 +7°C° 0 mm 10 mps 757 mmHg 78%
    02:00 +7°C° 0 mm 10 mps 756 mmHg 78%
    03:00 +7°C° 0 mm 10 mps 756 mmHg 79%
    04:00 +7°C° 0 mm 10 mps 755 mmHg 80%
    05:00 +7°C° 0 mm 11 mps 755 mmHg 81%
    06:00 +7°C° 0 mm 11 mps 755 mmHg 82%
    07:00 +8°C° 0.1 mm 10 mps 755 mmHg 83%
    08:00 +8°C° 0.1 mm 10 mps 755 mmHg 84%
    09:00 +9°C° 0.1 mm 10 mps 755 mmHg 85%
    10:00 +10°C° 0 mm 9 mps 756 mmHg 83%
    11:00 +10°C° 0 mm 9 mps 756 mmHg 80%
    12:00 +10°C° 0 mm 9 mps 756 mmHg 78%
    13:00 +10°C° 0 mm 9 mps 756 mmHg 74%
    14:00 +10°C° 0 mm 9 mps 756 mmHg 70%
    15:00 +10°C° 0 mm 9 mps 756 mmHg 66%
    16:00 +9°C° 0 mm 8 mps 757 mmHg 67%
    17:00 +7°C° 0 mm 8 mps 757 mmHg 68%
    18:00 +6°C° 0 mm 7 mps 758 mmHg 69%
    19:00 +6°C° 0 mm 7 mps 758 mmHg 71%
    20:00 +5°C° 0 mm 6 mps 759 mmHg 73%
    21:00 +5°C° 0 mm 6 mps 759 mmHg 75%
    22:00 +5°C° 0 mm 6 mps 759 mmHg 76%
    23:00 +5°C° 0 mm 6 mps 760 mmHg 77%

    23 Febrero, Domingo

    Tiempo Temperatura Precipitaciones Viento Presión Humedad
    00:00 +5°C° 0 mm 6 mps 760 mmHg 79%
    01:00 +6°C° 0 mm 5 mps 760 mmHg 79%
    02:00 +6°C° 0 mm 5 mps 759 mmHg 80%
    03:00 +6°C° 0 mm 5 mps 759 mmHg 81%
    04:00 +6°C° 0.8 mm 5 mps 759 mmHg 85%
    05:00 +6°C° 0.8 mm 5 mps 758 mmHg 89%
    06:00 +6°C° 0.8 mm 5 mps 757 mmHg 93%
    07:00 +7°C° 1.4 mm 5 mps 756 mmHg 94%
    08:00 +7°C° 1.4 mm 4 mps 756 mmHg 94%
    09:00 +7°C° 1.4 mm 4 mps 755 mmHg 95%
    10:00 +8°C° 0.7 mm 5 mps 755 mmHg 93%
    11:00 +9°C° 0.7 mm 6 mps 755 mmHg 90%
    12:00 +10°C° 0.7 mm 7 mps 755 mmHg 87%
    13:00 +9°C° 0 mm 7 mps 756 mmHg 84%
    14:00 +9°C° 0 mm 6 mps 757 mmHg 82%
    15:00 +9°C° 0 mm 6 mps 757 mmHg 79%
    16:00 +8°C° 0 mm 5 mps 758 mmHg 80%
    17:00 +7°C° 0 mm 4 mps 759 mmHg 81%
    18:00 +7°C° 0 mm 3 mps 760 mmHg 83%
    19:00 +7°C° 0 mm 2 mps 760 mmHg 82%
    20:00 +8°C° 0 mm 1 mps 761 mmHg 82%
    21:00 +6°C° 0 mm 0 mps 761 mmHg 82%
    22:00 +7°C° 0 mm 1 mps 761 mmHg 83%
    23:00 +7°C° 0 mm 1 mps 761 mmHg 83%

    24 Febrero, Lunes

    Tiempo Temperatura Precipitaciones Viento Presión Humedad
    00:00 +6°C° 0 mm 2 mps 761 mmHg 84%
    01:00 +5°C° 0.1 mm 3 mps 761 mmHg 86%
    02:00 +5°C° 0.1 mm 4 mps 760 mmHg 89%
    03:00 +6°C° 0.1 mm 5 mps 759 mmHg 91%
    04:00 +7°C° 0.1 mm 5 mps 758 mmHg 93%
    05:00 +8°C° 0.1 mm 5 mps 757 mmHg 94%
    06:00 +9°C° 0.1 mm 5 mps 756 mmHg 95%
    07:00 +9°C° 0 mm 7 mps 755 mmHg 93%
    08:00 +10°C° 0 mm 8 mps 755 mmHg 91%
    09:00 +9°C° 0 mm 10 mps 754 mmHg 89%
    10:00 +9°C° 0 mm 10 mps 754 mmHg 87%
    11:00 +9°C° 0 mm 11 mps 753 mmHg 86%
    12:00 +9°C° 0 mm 11 mps 752 mmHg 84%
    13:00 +9°C° 0.2 mm 11 mps 752 mmHg 85%
    14:00 +9°C° 0.2 mm 11 mps 751 mmHg 86%
    15:00 +9°C° 0.2 mm 10 mps 751 mmHg 87%
    16:00 +10°C° 0.1 mm 9 mps 751 mmHg 85%
    17:00 +9°C° 0.1 mm 8 mps 751 mmHg 83%
    18:00 +9°C° 0.1 mm 8 mps 751 mmHg 80%
    19:00 +8°C° 0 mm 7 mps 752 mmHg 79%
    20:00 +7°C° 0 mm 6 mps 752 mmHg 79%
    21:00 +5°C° 0 mm 6 mps 753 mmHg 78%
    22:00 +4°C° 0 mm 6 mps 753 mmHg 78%
    23:00 +5°C° 0 mm 5 mps 753 mmHg 78%

    25 Febrero, Martes

    Tiempo Temperatura Precipitaciones Viento Presión Humedad
    00:00 +3°C° 0 mm 5 mps 753 mmHg 79%
    01:00 +3°C° 0 mm 5 mps 753 mmHg 78%
    02:00 +3°C° 0 mm 5 mps 753 mmHg 78%
    03:00 +4°C° 0 mm 4 mps 753 mmHg 78%
    04:00 +3°C° 0 mm 4 mps 752 mmHg 78%
    05:00 +3°C° 0 mm 4 mps 752 mmHg 79%
    06:00 +3°C° 0 mm 4 mps 752 mmHg 79%
    07:00 +3°C° 0 mm 4 mps 752 mmHg 77%
    08:00 +4°C° 0 mm 4 mps 752 mmHg 75%
    09:00 +5°C° 0 mm 4 mps 751 mmHg 72%
    10:00 +5°C° 0 mm 5 mps 751 mmHg 70%
    11:00 +6°C° 0 mm 5 mps 750 mmHg 67%
    12:00 +5°C° 0 mm 6 mps 750 mmHg 65%
    13:00 +7°C° 0 mm 6 mps 749 mmHg 65%
    14:00 +7°C° 0 mm 6 mps 749 mmHg 66%
    15:00 +6°C° 0 mm 7 mps 748 mmHg 66%
    16:00 +5°C° 0 mm 6 mps 747 mmHg 70%
    17:00 +6°C° 0 mm 5 mps 746 mmHg 74%
    18:00 +5°C° 0 mm 5 mps 746 mmHg 78%
    19:00 +5°C° 0 mm 5 mps 745 mmHg 79%
    20:00 +5°C° 0 mm 5 mps 745 mmHg 79%
    21:00 +4°C° 0 mm 6 mps 744 mmHg 79%
    22:00 +3°C° 0 mm 6 mps 743 mmHg 80%
    23:00 +3°C° 0 mm 7 mps 743 mmHg 82%
    Mostrar más